Flag for U.S.A. Weather past 2 weeks in Pueblo, Colorado, U.S.A.

Now
51 °F

Clear.


Feels Like: 47 °F
Forecast: 46 / 80 °F
Wind: 13 mph from West

Location: Pueblo Memorial Airport

Current Time: Oct 26, 2014 at 1:29:54 AM

Latest Report: Oct 26, 2014 at 12:53 AM


Visibility: 10 mi

Pressure: 29.82 "Hg

Humidity: 41%

Dew point: 28 °F

Location of PuebloLocation

Historic Weather in Pueblo — Graph

°F

Pueblo temperature yesterday

Maximum temperature yesterday: 83 °F (at 1:53 PM)
Minimum temperature yesterday: 44 °F (at 6:53 AM)
Average temperature yesterday: 62 °F

Past Weeks' High & Low Weather Summary

 TemperatureHumidityPressure
High84 °F (Oct 24, 2:53 PM)97% (Oct 11, 12:57 AM)30.21 "Hg (Oct 11, 12:57 AM)
Low33 °F (Oct 14, 6:53 AM)8% (Oct 24, 3:53 PM)29.54 "Hg (Oct 12, 12:53 PM)
Average56 °F53%29.98 "Hg
* Reported Oct 10 11:53 PM — Oct 25 11:53 PM, Pueblo, Weather by CustomWeather, © 2014

Note: Actual official high and low records may vary slightly from our data, if they occured in-between our weather recording intervals... More about our weather records

Advertising

Pueblo weather history for previous 24 hours

 ConditionsComfort  
Time TempWeatherWind HumidityBarometerVisibility
11:53 PM
Oct 25
47 °FClear.7 mph50%29.83 "Hg10 mi
10:53 PM51 °FClear.No wind46%29.85 "Hg10 mi
9:53 PM53 °FClear.7 mph39%29.87 "Hg10 mi
8:53 PM55 °FClear.No wind35%29.91 "Hg10 mi
7:53 PM64 °FClear.6 mph25%29.91 "Hg10 mi
6:53 PM64 °FSunny.5 mph24%29.93 "Hg10 mi
5:53 PM78 °FSunny.6 mph14%29.89 "Hg10 mi
4:53 PM82 °FSunny.5 mph10%29.89 "Hg10 mi
3:53 PM83 °FSunny.6 mph10%29.90 "Hg10 mi
2:53 PM82 °FSunny.No wind10%29.93 "Hg10 mi
1:53 PM83 °FSunny.6 mph9%29.95 "Hg10 mi
12:53 PM81 °FSunny.N/A11%30.00 "Hg10 mi
11:53 AM77 °FSunny.No wind14%30.05 "Hg10 mi
10:53 AM73 °FSunny.7 mph17%30.08 "Hg10 mi
9:53 AM65 °FSunny.10 mph23%30.10 "Hg10 mi
8:53 AM57 °FSunny.9 mph33%30.12 "Hg10 mi
7:53 AM46 °FClear.6 mph48%30.11 "Hg10 mi
6:53 AM44 °FClear.13 mph53%30.10 "Hg10 mi
5:53 AM45 °FClear.9 mph51%30.06 "Hg10 mi
4:53 AM50 °FClear.9 mph41%30.03 "Hg10 mi
3:53 AM48 °FClear.10 mph48%30.03 "Hg10 mi
2:53 AM52 °FClear.5 mph38%30.02 "Hg10 mi
1:53 AM49 °FClear.9 mph44%30.03 "Hg10 mi
Weather by CustomWeather, © 2014

See weather overviewHow to use our weather pages